CEB888 RPVE-RPLL

Flight info

Callsign CEB888
Flight time 1h 7m
Altitude 22000
Route RPVE/06 N0385F220 MINO8A MINOR B473 LAIYA LAIY5R RPLL/06
Aircraft A321/M-A321/RPVE

Departure

Time 2026-05-05 14:02
Airport Godofredo P. Ramos Airport (RPVE)

Arrival

Time 2026-05-05 15:10
Airport Ninoy Aquino International Airport (RPLL)
Time Latitude Longitude Altitude Speed Heading
2026-05-05 13:43 11.92642 121.96343 12 ft 0 kts 153°
2026-05-05 13:49 11.92644 121.96342 12 ft 1 kts 153°
2026-05-05 13:49 11.92658 121.96337 12 ft 2 kts 180°
2026-05-05 13:49 11.92673 121.96339 12 ft 2 kts 200°
2026-05-05 13:49 11.92686 121.96347 12 ft 2 kts 221°
2026-05-05 13:50 11.92695 121.96357 12 ft 0 kts 240°
2026-05-05 13:50 11.92698 121.96362 12 ft 1 kts 243°
2026-05-05 13:50 11.92698 121.96364 12 ft 0 kts 243°
2026-05-05 13:54 11.92696 121.96359 12 ft 1 kts 243°
2026-05-05 13:54 11.92687 121.96342 12 ft 3 kts 243°
2026-05-05 13:54 11.92673 121.96311 12 ft 5 kts 245°
2026-05-05 13:54 11.92654 121.96270 12 ft 7 kts 245°
2026-05-05 13:55 11.92628 121.96215 12 ft 7 kts 245°
2026-05-05 13:55 11.92629 121.96204 12 ft 1 kts 318°
2026-05-05 13:55 11.92649 121.96193 12 ft 4 kts 333°
2026-05-05 13:55 11.92683 121.96178 12 ft 6 kts 338°
2026-05-05 13:56 11.92728 121.96157 12 ft 7 kts 335°
2026-05-05 13:56 11.92783 121.96127 12 ft 9 kts 322°
2026-05-05 13:56 11.92788 121.96068 12 ft 10 kts 246°
2026-05-05 13:56 11.92752 121.96000 12 ft 11 kts 242°
2026-05-05 13:57 11.92711 121.95921 12 ft 13 kts 242°
2026-05-05 13:57 11.92666 121.95835 12 ft 14 kts 242°
2026-05-05 13:57 11.92617 121.95740 12 ft 15 kts 242°
2026-05-05 13:57 11.92565 121.95639 12 ft 16 kts 245°
2026-05-05 13:58 11.92515 121.95529 12 ft 17 kts 245°
2026-05-05 13:58 11.92461 121.95416 12 ft 18 kts 243°
2026-05-05 13:58 11.92409 121.95314 12 ft 15 kts 243°
2026-05-05 13:58 11.92366 121.95227 12 ft 13 kts 243°
2026-05-05 13:59 11.92280 121.95077 12 ft 7 kts 220°
2026-05-05 13:59 11.92241 121.95044 12 ft 5 kts 231°
2026-05-05 14:00 11.92255 121.95022 12 ft 3 kts 40°
2026-05-05 14:00 11.92272 121.95044 12 ft 0 kts 58°
2026-05-05 14:01 11.92327 121.95149 12 ft 53 kts 63°
2026-05-05 14:01 11.92622 121.95738 13 ft 129 kts 64°
2026-05-05 14:02 11.93089 121.96688 344 ft 156 kts 63°
2026-05-05 14:02 11.93536 121.97693 1030 ft 159 kts 68°
2026-05-05 14:02 11.93972 121.98700 1805 ft 159 kts 63°
2026-05-05 14:02 11.94520 121.99723 2366 ft 175 kts 62°
2026-05-05 14:03 11.95140 122.00873 2944 ft 193 kts 63°
2026-05-05 14:03 11.95808 122.02106 3544 ft 210 kts 58°
2026-05-05 14:03 11.96898 122.03225 4035 ft 239 kts 34°
2026-05-05 14:03 11.98436 122.04049 4749 ft 258 kts 28°
2026-05-05 14:04 12.00075 122.04854 5648 ft 267 kts 28°
2026-05-05 14:04 12.01741 122.05676 6619 ft 273 kts 28°
2026-05-05 14:04 12.03463 122.06538 7587 ft 278 kts 28°
2026-05-05 14:04 12.05202 122.07413 8537 ft 282 kts 29°
2026-05-05 14:05 12.06963 122.08304 9467 ft 287 kts 29°
2026-05-05 14:05 12.08754 122.09212 10361 ft 292 kts 28°
2026-05-05 14:05 12.10609 122.10154 11006 ft 306 kts 28°
2026-05-05 14:05 12.12585 122.11150 11522 ft 325 kts 28°
2026-05-05 14:06 12.14676 122.12202 12006 ft 343 kts 28°
2026-05-05 14:06 12.16859 122.13305 12478 ft 360 kts 28°
2026-05-05 14:06 12.19145 122.14459 13194 ft 369 kts 28°
2026-05-05 14:06 12.21445 122.15621 14020 ft 372 kts 28°
2026-05-05 14:07 12.23781 122.16803 14781 ft 377 kts 28°
2026-05-05 14:07 12.26157 122.18006 15496 ft 382 kts 28°
2026-05-05 14:07 12.28538 122.19212 16172 ft 387 kts 28°
2026-05-05 14:07 12.30973 122.20448 16825 ft 392 kts 28°
2026-05-05 14:08 12.33436 122.21642 17438 ft 397 kts 22°
2026-05-05 14:08 12.36154 122.22192 17977 ft 407 kts
2026-05-05 14:08 12.38981 122.21729 18584 ft 413 kts 341°
2026-05-05 14:08 12.41535 122.20337 19203 ft 418 kts 327°
2026-05-05 14:09 12.43927 122.18669 19775 ft 421 kts 326°
2026-05-05 14:09 12.46363 122.16943 20284 ft 426 kts 326°
2026-05-05 14:09 12.48822 122.15208 20795 ft 429 kts 326°
2026-05-05 14:09 12.51293 122.13472 21285 ft 432 kts 326°
2026-05-05 14:10 12.53791 122.11724 21698 ft 437 kts 326°
2026-05-05 14:10 12.56322 122.09959 21865 ft 448 kts 326°
2026-05-05 14:10 12.58929 122.08144 21866 ft 460 kts 326°
2026-05-05 14:10 12.61534 122.06332 21862 ft 442 kts 326°
2026-05-05 14:11 12.64074 122.04562 21869 ft 435 kts 326°
2026-05-05 14:11 12.66568 122.02826 21870 ft 435 kts 326°
2026-05-05 14:11 12.69088 122.01071 21871 ft 435 kts 326°
2026-05-05 14:11 12.71575 121.99339 21873 ft 435 kts 326°
2026-05-05 14:12 12.74099 121.97581 21877 ft 435 kts 326°
2026-05-05 14:12 12.76592 121.95845 21878 ft 434 kts 326°
2026-05-05 14:12 12.79103 121.94096 21875 ft 434 kts 326°
2026-05-05 14:12 12.81597 121.92358 21876 ft 434 kts 326°
2026-05-05 14:13 12.84118 121.90601 21877 ft 435 kts 326°
2026-05-05 14:13 12.86608 121.88866 21879 ft 434 kts 326°
2026-05-05 14:13 12.89129 121.87109 21879 ft 434 kts 326°
2026-05-05 14:13 12.91600 121.85386 21877 ft 434 kts 326°
2026-05-05 14:14 12.94122 121.83626 21879 ft 434 kts 326°
2026-05-05 14:14 12.96600 121.81896 21883 ft 434 kts 326°
2026-05-05 14:14 12.99097 121.80153 21884 ft 434 kts 326°
2026-05-05 14:14 13.01617 121.78394 21886 ft 434 kts 326°
2026-05-05 14:15 13.04094 121.76663 21890 ft 434 kts 326°
2026-05-05 14:15 13.06624 121.74896 21892 ft 434 kts 326°
2026-05-05 14:15 13.09102 121.73164 21892 ft 434 kts 326°
2026-05-05 14:15 13.11600 121.71420 21890 ft 434 kts 326°
2026-05-05 14:16 13.14116 121.69671 21891 ft 434 kts 326°
2026-05-05 14:16 13.16634 121.67918 21898 ft 434 kts 326°
2026-05-05 14:16 13.19118 121.66187 21897 ft 434 kts 326°
2026-05-05 14:16 13.21628 121.64434 21898 ft 434 kts 326°
2026-05-05 14:17 13.24145 121.62674 21897 ft 434 kts 326°
2026-05-05 14:17 13.26618 121.60943 21899 ft 434 kts 326°
2026-05-05 14:17 13.29123 121.59189 21900 ft 434 kts 326°
2026-05-05 14:17 13.31640 121.57426 21898 ft 433 kts 326°
2026-05-05 14:18 13.34108 121.55696 21898 ft 433 kts 326°
2026-05-05 14:18 13.36609 121.53941 21898 ft 434 kts 326°
2026-05-05 14:18 13.39101 121.52193 21899 ft 434 kts 326°
2026-05-05 14:18 13.41614 121.50430 21899 ft 434 kts 326°
2026-05-05 14:19 13.44092 121.48692 21898 ft 434 kts 326°
2026-05-05 14:19 13.46592 121.46935 21898 ft 431 kts 326°
2026-05-05 14:19 13.49067 121.45195 21898 ft 425 kts 326°
2026-05-05 14:19 13.51491 121.43489 21899 ft 424 kts 326°
2026-05-05 14:20 13.53946 121.41762 21901 ft 424 kts 326°
2026-05-05 14:20 13.56356 121.40069 21884 ft 422 kts 326°
2026-05-05 14:20 13.58765 121.38351 21637 ft 417 kts 325°
2026-05-05 14:20 13.61126 121.36607 21088 ft 416 kts 324°
2026-05-05 14:21 13.63473 121.34853 20558 ft 414 kts 324°
2026-05-05 14:21 13.65771 121.33123 20081 ft 411 kts 324°
2026-05-05 14:21 13.68070 121.31390 19614 ft 408 kts 324°
2026-05-05 14:21 13.70357 121.29672 19147 ft 404 kts 324°
2026-05-05 14:22 13.72612 121.27983 18679 ft 401 kts 324°
2026-05-05 14:22 13.74860 121.26302 18208 ft 398 kts 324°
2026-05-05 14:22 13.77099 121.24630 17729 ft 396 kts 324°
2026-05-05 14:22 13.79323 121.22969 17257 ft 393 kts 324°
2026-05-05 14:23 13.81532 121.21320 16802 ft 390 kts 324°
2026-05-05 14:23 13.83716 121.19688 16345 ft 387 kts 324°
2026-05-05 14:23 13.85881 121.18070 15885 ft 385 kts 324°
2026-05-05 14:23 13.88047 121.16451 15419 ft 383 kts 325°
2026-05-05 14:24 13.90186 121.14852 14972 ft 380 kts 325°
2026-05-05 14:24 13.92329 121.13250 14524 ft 377 kts 325°
2026-05-05 14:24 13.94443 121.11668 14066 ft 375 kts 325°
2026-05-05 14:24 13.96529 121.10109 13608 ft 372 kts 325°
2026-05-05 14:25 13.98618 121.08546 13063 ft 368 kts 325°
2026-05-05 14:25 14.00690 121.06995 12460 ft 366 kts 325°
2026-05-05 14:25 14.02739 121.05464 11876 ft 363 kts 325°
2026-05-05 14:25 14.04762 121.03952 11297 ft 360 kts 325°
2026-05-05 14:26 14.06776 121.02445 10721 ft 357 kts 326°
2026-05-05 14:26 14.08773 121.00951 10317 ft 347 kts 326°
2026-05-05 14:26 14.10624 120.99405 10061 ft 335 kts 314°
2026-05-05 14:26 14.11833 120.97411 9818 ft 325 kts 290°
2026-05-05 14:27 14.12181 120.95176 9612 ft 313 kts 266°
2026-05-05 14:27 14.11732 120.93033 9432 ft 299 kts 251°
2026-05-05 14:27 14.11043 120.91068 9225 ft 289 kts 249°
2026-05-05 14:27 14.10322 120.89162 9039 ft 281 kts 248°
2026-05-05 14:28 14.09614 120.87320 8749 ft 277 kts 248°
2026-05-05 14:28 14.08903 120.85478 8413 ft 276 kts 248°
2026-05-05 14:28 14.08191 120.83647 8069 ft 275 kts 248°
2026-05-05 14:28 14.07486 120.81842 7828 ft 270 kts 248°
2026-05-05 14:29 14.06787 120.80060 7559 ft 266 kts 248°
2026-05-05 14:29 14.06090 120.78293 7243 ft 265 kts 248°
2026-05-05 14:29 14.05393 120.76547 6928 ft 263 kts 248°
2026-05-05 14:29 14.04809 120.74784 6584 ft 262 kts 264°
2026-05-05 14:30 14.04994 120.72957 6246 ft 256 kts 295°
2026-05-05 14:30 14.06001 120.71513 5947 ft 248 kts 321°
2026-05-05 14:30 14.07350 120.70408 5599 ft 248 kts 327°
2026-05-05 14:30 14.08771 120.69369 5246 ft 248 kts 328°
2026-05-05 14:31 14.10170 120.68368 5016 ft 245 kts 328°
2026-05-05 14:31 14.11598 120.67355 4987 ft 248 kts 328°
2026-05-05 14:31 14.13015 120.66348 4980 ft 246 kts 328°
2026-05-05 14:31 14.14421 120.65346 4973 ft 243 kts 328°
2026-05-05 14:32 14.15817 120.64350 4979 ft 242 kts 328°
2026-05-05 14:32 14.17198 120.63366 4979 ft 242 kts 328°
2026-05-05 14:32 14.18574 120.62381 4978 ft 242 kts 328°
2026-05-05 14:32 14.19964 120.61390 4979 ft 241 kts 328°
2026-05-05 14:33 14.21359 120.60394 4978 ft 241 kts 328°
2026-05-05 14:33 14.22766 120.59466 4966 ft 238 kts 341°
2026-05-05 14:33 14.24365 120.59246 4961 ft 229 kts 14°
2026-05-05 14:33 14.25871 120.59744 4975 ft 229 kts 25°
2026-05-05 14:34 14.27343 120.60422 4976 ft 230 kts 27°
2026-05-05 14:34 14.28729 120.61214 4966 ft 228 kts 45°
2026-05-05 14:34 14.29617 120.62551 4978 ft 225 kts 65°
2026-05-05 14:34 14.30259 120.64019 4981 ft 226 kts 67°
2026-05-05 14:35 14.30917 120.65507 4984 ft 227 kts 65°
2026-05-05 14:35 14.31602 120.66963 4985 ft 227 kts 64°
2026-05-05 14:35 14.32319 120.68427 4983 ft 228 kts 64°
2026-05-05 14:35 14.33064 120.69863 4983 ft 228 kts 62°
2026-05-05 14:36 14.33843 120.71296 4980 ft 226 kts 61°
2026-05-05 14:36 14.34611 120.72684 4747 ft 224 kts 60°
2026-05-05 14:36 14.35398 120.74096 4343 ft 229 kts 60°
2026-05-05 14:36 14.36191 120.75522 4038 ft 230 kts 61°
2026-05-05 14:37 14.36998 120.76972 4000 ft 233 kts 60°
2026-05-05 14:37 14.37807 120.78419 3990 ft 233 kts 60°
2026-05-05 14:37 14.38603 120.79854 3987 ft 231 kts 60°
2026-05-05 14:37 14.39390 120.81274 3936 ft 222 kts 61°
2026-05-05 14:38 14.40152 120.82649 3699 ft 221 kts 61°
2026-05-05 14:38 14.40913 120.84023 3415 ft 220 kts 61°
2026-05-05 14:38 14.41669 120.85387 3239 ft 210 kts 61°
2026-05-05 14:38 14.42371 120.86652 2958 ft 197 kts 61°
2026-05-05 14:39 14.43030 120.87841 2684 ft 184 kts 61°
2026-05-05 14:39 14.43746 120.88887 2381 ft 176 kts 40°
2026-05-05 14:39 14.44880 120.89288 2108 ft 177 kts 358°
2026-05-05 14:39 14.46026 120.88846 2107 ft 180 kts 332°
2026-05-05 14:40 14.47127 120.88110 2339 ft 194 kts 328°
2026-05-05 14:40 14.48272 120.87299 2652 ft 210 kts 327°
2026-05-05 14:40 14.49451 120.86467 2917 ft 225 kts 327°
2026-05-05 14:40 14.50628 120.85644 2919 ft 229 kts 328°
2026-05-05 14:41 14.51957 120.84714 2943 ft 229 kts 328°
2026-05-05 14:41 14.53278 120.83783 2966 ft 229 kts 327°
2026-05-05 14:41 14.54593 120.82859 2977 ft 229 kts 328°
2026-05-05 14:41 14.55928 120.81923 2990 ft 229 kts 328°
2026-05-05 14:42 14.57240 120.81000 2987 ft 229 kts 327°
2026-05-05 14:42 14.58561 120.80071 2992 ft 229 kts 328°
2026-05-05 14:42 14.59888 120.79140 2994 ft 229 kts 328°
2026-05-05 14:42 14.61211 120.78212 2991 ft 229 kts 327°
2026-05-05 14:43 14.62453 120.77161 2970 ft 231 kts 308°
2026-05-05 14:43 14.63052 120.75657 2973 ft 231 kts 275°
2026-05-05 14:43 14.62777 120.74035 2976 ft 232 kts 241°
2026-05-05 14:43 14.61711 120.72828 2982 ft 229 kts 207°
2026-05-05 14:44 14.60187 120.72403 2988 ft 225 kts 177°
2026-05-05 14:44 14.58637 120.72546 3009 ft 226 kts 169°
2026-05-05 14:44 14.57075 120.72817 3003 ft 226 kts 168°
2026-05-05 14:44 14.55516 120.73111 2997 ft 225 kts 167°
2026-05-05 14:45 14.53955 120.73408 3002 ft 229 kts 167°
2026-05-05 14:45 14.52359 120.73714 2998 ft 237 kts 168°
2026-05-05 14:45 14.50723 120.74029 2993 ft 238 kts 167°
2026-05-05 14:45 14.49071 120.74343 2991 ft 239 kts 167°
2026-05-05 14:46 14.47426 120.74653 2991 ft 239 kts 167°
2026-05-05 14:46 14.45797 120.74958 2989 ft 239 kts 167°
2026-05-05 14:46 14.44142 120.75264 2983 ft 238 kts 167°
2026-05-05 14:46 14.42526 120.75563 2790 ft 236 kts 167°
2026-05-05 14:47 14.40905 120.75916 2523 ft 234 kts 157°
2026-05-05 14:47 14.39613 120.76858 2491 ft 229 kts 124°
2026-05-05 14:47 14.39026 120.78359 2496 ft 226 kts 96°
2026-05-05 14:47 14.39086 120.79961 2503 ft 227 kts 79°
2026-05-05 14:48 14.39553 120.81506 2495 ft 225 kts 65°
2026-05-05 14:48 14.40270 120.82916 2489 ft 216 kts 61°
2026-05-05 14:48 14.40996 120.84225 2578 ft 202 kts 61°
2026-05-05 14:48 14.41673 120.85429 2518 ft 185 kts 61°
2026-05-05 14:49 14.42274 120.86502 2496 ft 162 kts 61°
2026-05-05 14:49 14.42828 120.87494 2487 ft 157 kts 61°
2026-05-05 14:49 14.43363 120.88457 2489 ft 156 kts 61°
2026-05-05 14:49 14.43906 120.89438 2490 ft 156 kts 61°
2026-05-05 14:50 14.44451 120.90421 2249 ft 157 kts 61°
2026-05-05 14:50 14.44984 120.91380 2147 ft 154 kts 61°
2026-05-05 14:50 14.45522 120.92347 2173 ft 155 kts 60°
2026-05-05 14:50 14.46049 120.93310 2067 ft 155 kts 62°
2026-05-05 14:51 14.46556 120.94312 1806 ft 155 kts 62°
2026-05-05 14:51 14.47065 120.95287 1726 ft 154 kts 59°
2026-05-05 14:51 14.47636 120.96227 1716 ft 154 kts 59°
2026-05-05 14:51 14.48159 120.97214 1744 ft 165 kts 64°
2026-05-05 14:52 14.48659 120.98353 2027 ft 184 kts 68°
2026-05-05 14:52 14.49237 120.99603 2404 ft 204 kts 65°
2026-05-05 14:52 14.49869 121.00970 3005 ft 214 kts 64°
2026-05-05 14:52 14.50524 121.02397 3553 ft 231 kts 65°
2026-05-05 14:53 14.51205 121.04032 3846 ft 263 kts 71°
2026-05-05 14:53 14.51409 121.05872 3946 ft 254 kts 98°
2026-05-05 14:53 14.50751 121.07480 3965 ft 239 kts 129°
2026-05-05 14:53 14.49413 121.08466 3975 ft 241 kts 160°
2026-05-05 14:54 14.47749 121.08603 3992 ft 244 kts 188°
2026-05-05 14:54 14.46073 121.08174 4000 ft 247 kts 196°
2026-05-05 14:54 14.44431 121.07632 3993 ft 248 kts 197°
2026-05-05 14:54 14.42776 121.07060 3991 ft 248 kts 198°
2026-05-05 14:55 14.41134 121.06490 3990 ft 248 kts 198°
2026-05-05 14:55 14.39498 121.05920 3992 ft 248 kts 198°
2026-05-05 14:55 14.37868 121.05356 4012 ft 247 kts 198°
2026-05-05 14:55 14.36238 121.04793 4017 ft 247 kts 198°
2026-05-05 14:56 14.34603 121.04156 4004 ft 248 kts 210°
2026-05-05 14:56 14.33347 121.02978 4005 ft 248 kts 232°
2026-05-05 14:56 14.32338 121.01506 4008 ft 249 kts 237°
2026-05-05 14:56 14.31401 121.00017 4005 ft 250 kts 237°
2026-05-05 14:57 14.30458 120.98493 4009 ft 250 kts 238°
2026-05-05 14:57 14.29531 120.96989 4002 ft 250 kts 238°
2026-05-05 14:57 14.28602 120.95480 3914 ft 246 kts 238°
2026-05-05 14:57 14.27695 120.94000 3601 ft 246 kts 238°
2026-05-05 14:58 14.26779 120.92499 3521 ft 247 kts 238°
2026-05-05 14:58 14.25871 120.91005 3518 ft 248 kts 237°
2026-05-05 14:58 14.24955 120.89487 3519 ft 249 kts 238°
2026-05-05 14:58 14.24041 120.87963 3518 ft 248 kts 238°
2026-05-05 14:59 14.23131 120.86440 3517 ft 249 kts 238°
2026-05-05 14:59 14.22423 120.84815 3503 ft 249 kts 259°
2026-05-05 14:59 14.22496 120.83079 3501 ft 246 kts 291°
2026-05-05 14:59 14.23414 120.81634 3508 ft 242 kts 319°
2026-05-05 15:00 14.24743 120.80539 3510 ft 243 kts 326°
2026-05-05 15:00 14.25668 120.79869 3506 ft 243 kts 327°
2026-05-05 15:00 14.27515 120.78567 3400 ft 237 kts 328°
2026-05-05 15:00 14.28862 120.77621 3158 ft 229 kts 328°
2026-05-05 15:01 14.30165 120.76700 2744 ft 221 kts 328°
2026-05-05 15:01 14.31372 120.75840 2767 ft 202 kts 328°
2026-05-05 15:01 14.32440 120.75068 2799 ft 174 kts 328°
2026-05-05 15:01 14.33416 120.74350 2821 ft 168 kts 328°
2026-05-05 15:02 14.34360 120.73653 2863 ft 168 kts 328°
2026-05-05 15:02 14.35323 120.72947 2914 ft 168 kts 328°
2026-05-05 15:02 14.36370 120.72510 2924 ft 161 kts
2026-05-05 15:02 14.37359 120.72932 2967 ft 154 kts 50°
2026-05-05 15:03 14.37782 120.73930 3050 ft 155 kts 76°
2026-05-05 15:03 14.38178 120.74965 3106 ft 157 kts 63°
2026-05-05 15:03 14.38736 120.75948 3150 ft 157 kts 60°
2026-05-05 15:03 14.39221 120.76944 3206 ft 157 kts 71°
2026-05-05 15:04 14.39561 120.78026 3263 ft 157 kts 74°
2026-05-05 15:04 14.39881 120.79093 3219 ft 157 kts 74°
2026-05-05 15:04 14.40197 120.80177 3159 ft 157 kts 74°
2026-05-05 15:04 14.40508 120.81261 3095 ft 156 kts 74°
2026-05-05 15:05 14.41130 120.83416 2968 ft 156 kts 74°
2026-05-05 15:05 14.41441 120.84480 2916 ft 156 kts 73°
2026-05-05 15:05 14.41839 120.85536 2971 ft 157 kts 65°
2026-05-05 15:06 14.42308 120.86544 2975 ft 156 kts 65°
2026-05-05 15:06 14.42814 120.87544 2957 ft 157 kts 61°
2026-05-05 15:06 14.43367 120.88509 2789 ft 155 kts 61°
2026-05-05 15:06 14.43916 120.89468 2534 ft 155 kts 60°
2026-05-05 15:07 14.44485 120.90407 2287 ft 155 kts 60°
2026-05-05 15:07 14.45034 120.91369 2093 ft 155 kts 63°
2026-05-05 15:07 14.45548 120.92345 1777 ft 154 kts 61°
2026-05-05 15:07 14.46058 120.93304 1521 ft 153 kts 63°
2026-05-05 15:08 14.46556 120.94264 1295 ft 152 kts 61°
2026-05-05 15:08 14.47077 120.95219 1092 ft 153 kts 60°
2026-05-05 15:08 14.47630 120.96153 910 ft 151 kts 62°
2026-05-05 15:08 14.48156 120.97105 756 ft 153 kts 61°
2026-05-05 15:09 14.48669 120.98040 563 ft 150 kts 61°
2026-05-05 15:09 14.49199 120.98974 379 ft 150 kts 62°
2026-05-05 15:09 14.49719 120.99907 197 ft 149 kts 62°
2026-05-05 15:09 14.50222 121.00818 82 ft 128 kts 62°
2026-05-05 15:10 14.50516 121.01339 82 ft 44 kts 57°
2026-05-05 15:10 14.50635 121.01548 82 ft 32 kts 57°